owner,sensor,date,latitude,longitude,vertical_datum,sea_water_practical_salinity,qcFlag 
NERRS,ioos:station:NOAA.NERRS:rkblhwq:1,2017-09-01T00:45:00Z,26.0257,-81.7332,3.89,6.8,1111122 
NERRS,ioos:station:NOAA.NERRS:rkblhwq:1,2017-09-01T01:45:00Z,26.0257,-81.7332,4.25,10.5,1111122 
NERRS,ioos:station:NOAA.NERRS:rkblhwq:1,2017-09-01T02:45:00Z,26.0257,-81.7332,4.57,11.1,1111122 
NERRS,ioos:station:NOAA.NERRS:rkblhwq:1,2017-09-01T03:45:00Z,26.0257,-81.7332,4.76,11.0,1111122 
NERRS,ioos:station:NOAA.NERRS:rkblhwq:1,2017-09-01T04:45:00Z,26.0257,-81.7332,4.71,11.1,1111122 
NERRS,ioos:station:NOAA.NERRS:rkblhwq:1,2017-09-01T05:45:00Z,26.0257,-81.7332,4.49,9.1,1111122 
NERRS,ioos:station:NOAA.NERRS:rkblhwq:1,2017-09-01T06:45:00Z,26.0257,-81.7332,4.17,9.5,1111122 
NERRS,ioos:station:NOAA.NERRS:rkblhwq:1,2017-09-01T07:45:00Z,26.0257,-81.7332,3.99,6.7,1111122 
NERRS,ioos:station:NOAA.NERRS:rkblhwq:1,2017-09-01T08:45:00Z,26.0257,-81.7332,3.9,6.8,1111122 
NERRS,ioos:station:NOAA.NERRS:rkblhwq:1,2017-09-01T09:45:00Z,26.0257,-81.7332,3.98,9.4,1111122 
NERRS,ioos:station:NOAA.NERRS:rkblhwq:1,2017-09-01T10:45:00Z,26.0257,-81.7332,4.2,11.6,1111122 
NERRS,ioos:station:NOAA.NERRS:rkblhwq:1,2017-09-01T11:45:00Z,26.0257,-81.7332,4.63,9.5,1111122 
NERRS,ioos:station:NOAA.NERRS:rkblhwq:1,2017-09-01T12:45:00Z,26.0257,-81.7332,4.94,13.2,1111122 
NERRS,ioos:station:NOAA.NERRS:rkblhwq:1,2017-09-01T13:45:00Z,26.0257,-81.7332,5.13,15.5,1111122 
NERRS,ioos:station:NOAA.NERRS:rkblhwq:1,2017-09-01T14:45:00Z,26.0257,-81.7332,5.17,16.0,1111122 
NERRS,ioos:station:NOAA.NERRS:rkblhwq:1,2017-09-01T15:45:00Z,26.0257,-81.7332,5.0,11.3,1111122 
NERRS,ioos:station:NOAA.NERRS:rkblhwq:1,2017-09-01T16:45:00Z,26.0257,-81.7332,4.68,10.7,1111122 
NERRS,ioos:station:NOAA.NERRS:rkblhwq:1,2017-09-01T17:45:00Z,26.0257,-81.7332,4.3,10.8,1111122 
NERRS,ioos:station:NOAA.NERRS:rkblhwq:1,2017-09-01T18:45:00Z,26.0257,-81.7332,3.91,10.4,1111122 
NERRS,ioos:station:NOAA.NERRS:rkblhwq:1,2017-09-01T19:45:00Z,26.0257,-81.7332,3.48,9.8,1111122 
NERRS,ioos:station:NOAA.NERRS:rkblhwq:1,2017-09-01T20:45:00Z,26.0257,-81.7332,3.07,7.0,1111122 
NERRS,ioos:station:NOAA.NERRS:rkblhwq:1,2017-09-01T21:45:00Z,26.0257,-81.7332,2.79,3.7,1111122 
NERRS,ioos:station:NOAA.NERRS:rkblhwq:1,2017-09-01T23:45:00Z,26.0257,-81.7332,3.36,7.4,1111122 
NERRS,ioos:station:NOAA.NERRS:rkblhwq:1,2017-09-02T00:45:00Z,26.0257,-81.7332,3.85,10.6,1111122 
NERRS,ioos:station:NOAA.NERRS:rkblhwq:1,2017-09-02T01:45:00Z,26.0257,-81.7332,4.23,11.5,1111122 
NERRS,ioos:station:NOAA.NERRS:rkblhwq:1,2017-09-02T02:45:00Z,26.0257,-81.7332,4.63,12.6,1111122 
NERRS,ioos:station:NOAA.NERRS:rkblhwq:1,2017-09-02T03:45:00Z,26.0257,-81.7332,4.92,12.8,1111122 
NERRS,ioos:station:NOAA.NERRS:rkblhwq:1,2017-09-02T04:45:00Z,26.0257,-81.7332,5.05,13.5,1111122 
NERRS,ioos:station:NOAA.NERRS:rkblhwq:1,2017-09-02T05:45:00Z,26.0257,-81.7332,4.75,9.6,1111122 
NERRS,ioos:station:NOAA.NERRS:rkblhwq:1,2017-09-02T06:45:00Z,26.0257,-81.7332,4.29,11.4,1111122 
NERRS,ioos:station:NOAA.NERRS:rkblhwq:1,2017-09-02T07:45:00Z,26.0257,-81.7332,3.93,9.3,1111122 
NERRS,ioos:station:NOAA.NERRS:rkblhwq:1,2017-09-02T08:45:00Z,26.0257,-81.7332,3.68,8.3,1111122 
NERRS,ioos:station:NOAA.NERRS:rkblhwq:1,2017-09-02T09:45:00Z,26.0257,-81.7332,3.69,9.1,1111122 
NERRS,ioos:station:NOAA.NERRS:rkblhwq:1,2017-09-02T10:45:00Z,26.0257,-81.7332,3.89,10.8,1111122 
NERRS,ioos:station:NOAA.NERRS:rkblhwq:1,2017-09-02T11:45:00Z,26.0257,-81.7332,4.13,10.0,1111122 
NERRS,ioos:station:NOAA.NERRS:rkblhwq:1,2017-09-02T12:45:00Z,26.0257,-81.7332,4.33,11.2,1111122 
NERRS,ioos:station:NOAA.NERRS:rkblhwq:1,2017-09-02T13:45:00Z,26.0257,-81.7332,4.71,10.1,1111122 
NERRS,ioos:station:NOAA.NERRS:rkblhwq:1,2017-09-02T14:45:00Z,26.0257,-81.7332,5.01,12.1,1111122 
NERRS,ioos:station:NOAA.NERRS:rkblhwq:1,2017-09-02T15:45:00Z,26.0257,-81.7332,5.18,13.5,1111122 
NERRS,ioos:station:NOAA.NERRS:rkblhwq:1,2017-09-02T16:45:00Z,26.0257,-81.7332,5.1,12.4,1111122 
NERRS,ioos:station:NOAA.NERRS:rkblhwq:1,2017-09-02T17:45:00Z,26.0257,-81.7332,4.69,11.7,1111122 
NERRS,ioos:station:NOAA.NERRS:rkblhwq:1,2017-09-02T18:45:00Z,26.0257,-81.7332,4.19,11.5,1111122 
NERRS,ioos:station:NOAA.NERRS:rkblhwq:1,2017-09-02T19:45:00Z,26.0257,-81.7332,3.67,12.2,1111122 
NERRS,ioos:station:NOAA.NERRS:rkblhwq:1,2017-09-02T20:45:00Z,26.0257,-81.7332,3.23,8.8,1111122 
NERRS,ioos:station:NOAA.NERRS:rkblhwq:1,2017-09-02T21:45:00Z,26.0257,-81.7332,2.86,9.2,1111122 
NERRS,ioos:station:NOAA.NERRS:rkblhwq:1,2017-09-02T22:45:00Z,26.0257,-81.7332,2.66,4.8,1111122 
NERRS,ioos:station:NOAA.NERRS:rkblhwq:1,2017-09-02T23:45:00Z,26.0257,-81.7332,2.77,6.8,1111122 
NERRS,ioos:station:NOAA.NERRS:rkblhwq:1,2017-09-03T00:45:00Z,26.0257,-81.7332,3.27,7.1,1111122 
NERRS,ioos:station:NOAA.NERRS:rkblhwq:1,2017-09-03T01:45:00Z,26.0257,-81.7332,4.1,9.5,1111122 
NERRS,ioos:station:NOAA.NERRS:rkblhwq:1,2017-09-03T02:45:00Z,26.0257,-81.7332,4.38,9.4,1111122 
NERRS,ioos:station:NOAA.NERRS:rkblhwq:1,2017-09-03T03:45:00Z,26.0257,-81.7332,4.66,11.8,1111122 
NERRS,ioos:station:NOAA.NERRS:rkblhwq:1,2017-09-03T04:45:00Z,26.0257,-81.7332,4.9,11.4,1111122 
NERRS,ioos:station:NOAA.NERRS:rkblhwq:1,2017-09-03T05:45:00Z,26.0257,-81.7332,4.87,10.9,1111122 
NERRS,ioos:station:NOAA.NERRS:rkblhwq:1,2017-09-03T06:45:00Z,26.0257,-81.7332,4.55,9.3,1111122 
NERRS,ioos:station:NOAA.NERRS:rkblhwq:1,2017-09-03T07:45:00Z,26.0257,-81.7332,4.16,10.1,1111122 
NERRS,ioos:station:NOAA.NERRS:rkblhwq:1,2017-09-03T08:45:00Z,26.0257,-81.7332,3.81,8.1,1111122 
NERRS,ioos:station:NOAA.NERRS:rkblhwq:1,2017-09-03T09:45:00Z,26.0257,-81.7332,3.56,8.6,1111122 
NERRS,ioos:station:NOAA.NERRS:rkblhwq:1,2017-09-03T10:45:00Z,26.0257,-81.7332,3.58,8.0,1111122 
NERRS,ioos:station:NOAA.NERRS:rkblhwq:1,2017-09-03T11:45:00Z,26.0257,-81.7332,3.81,9.3,1111122 
NERRS,ioos:station:NOAA.NERRS:rkblhwq:1,2017-09-03T12:45:00Z,26.0257,-81.7332,4.25,8.4,1111122 
NERRS,ioos:station:NOAA.NERRS:rkblhwq:1,2017-09-03T13:45:00Z,26.0257,-81.7332,4.67,11.3,1111122 
NERRS,ioos:station:NOAA.NERRS:rkblhwq:1,2017-09-03T14:45:00Z,26.0257,-81.7332,5.01,12.3,1111122 
NERRS,ioos:station:NOAA.NERRS:rkblhwq:1,2017-09-03T15:45:00Z,26.0257,-81.7332,5.27,12.3,1111122 
NERRS,ioos:station:NOAA.NERRS:rkblhwq:1,2017-09-03T16:45:00Z,26.0257,-81.7332,5.26,14.3,1111122 
NERRS,ioos:station:NOAA.NERRS:rkblhwq:1,2017-09-03T17:45:00Z,26.0257,-81.7332,4.95,11.5,1111122 
NERRS,ioos:station:NOAA.NERRS:rkblhwq:1,2017-09-03T18:45:00Z,26.0257,-81.7332,4.48,10.7,1111122 
NERRS,ioos:station:NOAA.NERRS:rkblhwq:1,2017-09-03T19:45:00Z,26.0257,-81.7332,3.93,12.5,1111122 
NERRS,ioos:station:NOAA.NERRS:rkblhwq:1,2017-09-03T20:45:00Z,26.0257,-81.7332,3.39,9.4,1111122 
NERRS,ioos:station:NOAA.NERRS:rkblhwq:1,2017-09-03T21:45:00Z,26.0257,-81.7332,2.94,4.9,1111122 
NERRS,ioos:station:NOAA.NERRS:rkblhwq:1,2017-09-03T22:45:00Z,26.0257,-81.7332,2.53,5.2,1111122 
NERRS,ioos:station:NOAA.NERRS:rkblhwq:1,2017-09-03T23:45:00Z,26.0257,-81.7332,2.37,4.3,1111122 
NERRS,ioos:station:NOAA.NERRS:rkblhwq:1,2017-09-04T00:45:00Z,26.0257,-81.7332,2.77,7.8,1111122 
NERRS,ioos:station:NOAA.NERRS:rkblhwq:1,2017-09-04T01:45:00Z,26.0257,-81.7332,3.3,7.1,1111122 
NERRS,ioos:station:NOAA.NERRS:rkblhwq:1,2017-09-04T02:45:00Z,26.0257,-81.7332,3.82,9.2,1111122 
NERRS,ioos:station:NOAA.NERRS:rkblhwq:1,2017-09-04T03:45:00Z,26.0257,-81.7332,4.33,10.8,1111122 
NERRS,ioos:station:NOAA.NERRS:rkblhwq:1,2017-09-04T04:45:00Z,26.0257,-81.7332,4.77,12.1,1111122 
NERRS,ioos:station:NOAA.NERRS:rkblhwq:1,2017-09-04T05:45:00Z,26.0257,-81.7332,4.94,11.7,1111122 
NERRS,ioos:station:NOAA.NERRS:rkblhwq:1,2017-09-04T06:45:00Z,26.0257,-81.7332,4.78,10.6,1111122 
NERRS,ioos:station:NOAA.NERRS:rkblhwq:1,2017-09-04T07:45:00Z,26.0257,-81.7332,4.4,10.9,1111122 
NERRS,ioos:station:NOAA.NERRS:rkblhwq:1,2017-09-04T08:45:00Z,26.0257,-81.7332,3.99,11.3,1111122 
NERRS,ioos:station:NOAA.NERRS:rkblhwq:1,2017-09-04T09:45:00Z,26.0257,-81.7332,3.68,9.7,1111122 
NERRS,ioos:station:NOAA.NERRS:rkblhwq:1,2017-09-04T10:45:00Z,26.0257,-81.7332,3.46,9.1,1111122 
NERRS,ioos:station:NOAA.NERRS:rkblhwq:1,2017-09-04T11:45:00Z,26.0257,-81.7332,3.55,8.0,1111122 
NERRS,ioos:station:NOAA.NERRS:rkblhwq:1,2017-09-04T12:45:00Z,26.0257,-81.7332,3.93,11.7,1111122 
NERRS,ioos:station:NOAA.NERRS:rkblhwq:1,2017-09-04T13:45:00Z,26.0257,-81.7332,4.41,11.7,1111122 
NERRS,ioos:station:NOAA.NERRS:rkblhwq:1,2017-09-04T14:45:00Z,26.0257,-81.7332,4.87,14.7,1111122 
NERRS,ioos:station:NOAA.NERRS:rkblhwq:1,2017-09-04T15:45:00Z,26.0257,-81.7332,5.23,15.4,1111122 
NERRS,ioos:station:NOAA.NERRS:rkblhwq:1,2017-09-04T16:45:00Z,26.0257,-81.7332,5.42,15.3,1111122 
NERRS,ioos:station:NOAA.NERRS:rkblhwq:1,2017-09-04T17:45:00Z,26.0257,-81.7332,5.4,19.0,1111122 
NERRS,ioos:station:NOAA.NERRS:rkblhwq:1,2017-09-04T18:45:00Z,26.0257,-81.7332,5.08,15.8,1111122 
NERRS,ioos:station:NOAA.NERRS:rkblhwq:1,2017-09-04T19:45:00Z,26.0257,-81.7332,4.56,15.2,1111122 
NERRS,ioos:station:NOAA.NERRS:rkblhwq:1,2017-09-04T20:45:00Z,26.0257,-81.7332,3.94,14.2,1111122 
NERRS,ioos:station:NOAA.NERRS:rkblhwq:1,2017-09-04T21:45:00Z,26.0257,-81.7332,3.37,12.6,1111122 
NERRS,ioos:station:NOAA.NERRS:rkblhwq:1,2017-09-04T23:45:00Z,26.0257,-81.7332,2.71,9.1,1111122 
NERRS,ioos:station:NOAA.NERRS:rkblhwq:1,2017-09-05T00:45:00Z,26.0257,-81.7332,2.56,6.2,1111122 
NERRS,ioos:station:NOAA.NERRS:rkblhwq:1,2017-09-05T01:45:00Z,26.0257,-81.7332,3.03,8.9,1111122 
NERRS,ioos:station:NOAA.NERRS:rkblhwq:1,2017-09-05T02:45:00Z,26.0257,-81.7332,3.58,9.4,1111122 
NERRS,ioos:station:NOAA.NERRS:rkblhwq:1,2017-09-05T03:45:00Z,26.0257,-81.7332,4.1,11.1,1111122 
NERRS,ioos:station:NOAA.NERRS:rkblhwq:1,2017-09-05T04:45:00Z,26.0257,-81.7332,4.65,12.4,1111122 
NERRS,ioos:station:NOAA.NERRS:rkblhwq:1,2017-09-05T05:45:00Z,26.0257,-81.7332,4.96,14.3,1111122 
NERRS,ioos:station:NOAA.NERRS:rkblhwq:1,2017-09-05T06:45:00Z,26.0257,-81.7332,5.05,14.5,1111122 
NERRS,ioos:station:NOAA.NERRS:rkblhwq:1,2017-09-05T07:45:00Z,26.0257,-81.7332,4.73,12.2,1111122 
NERRS,ioos:station:NOAA.NERRS:rkblhwq:1,2017-09-05T08:45:00Z,26.0257,-81.7332,4.29,12.3,1111122 
NERRS,ioos:station:NOAA.NERRS:rkblhwq:1,2017-09-05T09:45:00Z,26.0257,-81.7332,3.87,12.8,1111122 
NERRS,ioos:station:NOAA.NERRS:rkblhwq:1,2017-09-05T10:45:00Z,26.0257,-81.7332,3.49,13.2,1111122 
NERRS,ioos:station:NOAA.NERRS:rkblhwq:1,2017-09-05T11:45:00Z,26.0257,-81.7332,3.26,11.1,1111122 
NERRS,ioos:station:NOAA.NERRS:rkblhwq:1,2017-09-05T12:45:00Z,26.0257,-81.7332,3.53,11.2,1111122 
NERRS,ioos:station:NOAA.NERRS:rkblhwq:1,2017-09-05T13:45:00Z,26.0257,-81.7332,4.1,10.3,1111122 
NERRS,ioos:station:NOAA.NERRS:rkblhwq:1,2017-09-05T15:45:00Z,26.0257,-81.7332,5.16,17.2,1111122 
NERRS,ioos:station:NOAA.NERRS:rkblhwq:1,2017-09-05T16:45:00Z,26.0257,-81.7332,5.44,18.8,1111122 
NERRS,ioos:station:NOAA.NERRS:rkblhwq:1,2017-09-05T17:45:00Z,26.0257,-81.7332,5.59,17.3,1111122 
NERRS,ioos:station:NOAA.NERRS:rkblhwq:1,2017-09-05T18:45:00Z,26.0257,-81.7332,5.44,19.8,1111122 
NERRS,ioos:station:NOAA.NERRS:rkblhwq:1,2017-09-05T19:45:00Z,26.0257,-81.7332,5.09,17.7,1111122 
NERRS,ioos:station:NOAA.NERRS:rkblhwq:1,2017-09-05T20:45:00Z,26.0257,-81.7332,4.61,14.7,1111122 
NERRS,ioos:station:NOAA.NERRS:rkblhwq:1,2017-09-05T21:45:00Z,26.0257,-81.7332,4.01,12.8,1111122 
NERRS,ioos:station:NOAA.NERRS:rkblhwq:1,2017-09-05T22:45:00Z,26.0257,-81.7332,3.42,11.2,1111122 
NERRS,ioos:station:NOAA.NERRS:rkblhwq:1,2017-09-05T23:45:00Z,26.0257,-81.7332,2.94,10.6,1111122 
NERRS,ioos:station:NOAA.NERRS:rkblhwq:1,2017-09-06T00:45:00Z,26.0257,-81.7332,2.69,7.4,1111122 
NERRS,ioos:station:NOAA.NERRS:rkblhwq:1,2017-09-07T14:45:00Z,26.0257,-81.7332,3.57,14.9,1111122 
NERRS,ioos:station:NOAA.NERRS:rkblhwq:1,2017-09-07T15:45:00Z,26.0257,-81.7332,4.24,16.4,1111122 
NERRS,ioos:station:NOAA.NERRS:rkblhwq:1,2017-09-07T16:45:00Z,26.0257,-81.7332,4.86,17.6,1111122 
NERRS,ioos:station:NOAA.NERRS:rkblhwq:1,2017-09-07T17:45:00Z,26.0257,-81.7332,5.31,19.6,1111122 
NERRS,ioos:station:NOAA.NERRS:rkblhwq:1,2017-09-07T18:45:00Z,26.0257,-81.7332,5.54,21.4,1111122 
NERRS,ioos:station:NOAA.NERRS:rkblhwq:1,2017-09-07T19:45:00Z,26.0257,-81.7332,5.52,21.6,1111122 
NERRS,ioos:station:NOAA.NERRS:rkblhwq:1,2017-09-07T20:45:00Z,26.0257,-81.7332,5.18,20.1,1111122 
NERRS,ioos:station:NOAA.NERRS:rkblhwq:1,2017-09-07T21:45:00Z,26.0257,-81.7332,4.74,19.3,1111122 
NERRS,ioos:station:NOAA.NERRS:rkblhwq:1,2017-09-07T22:45:00Z,26.0257,-81.7332,4.21,17.4,1111122 
NERRS,ioos:station:NOAA.NERRS:rkblhwq:1,2017-09-07T23:45:00Z,26.0257,-81.7332,3.68,16.9,1111122 
NERRS,ioos:station:NOAA.NERRS:rkblhwq:1,2017-09-08T00:45:00Z,26.0257,-81.7332,3.16,15.9,1111122 
NERRS,ioos:station:NOAA.NERRS:rkblhwq:1,2017-09-08T01:45:00Z,26.0257,-81.7332,2.9,13.0,1111122 
NERRS,ioos:station:NOAA.NERRS:rkblhwq:1,2017-09-08T02:45:00Z,26.0257,-81.7332,3.08,14.7,1111122 
NERRS,ioos:station:NOAA.NERRS:rkblhwq:1,2017-09-08T03:45:00Z,26.0257,-81.7332,3.61,15.0,1111122 
NERRS,ioos:station:NOAA.NERRS:rkblhwq:1,2017-09-08T04:45:00Z,26.0257,-81.7332,4.12,17.2,1111122 
NERRS,ioos:station:NOAA.NERRS:rkblhwq:1,2017-09-08T05:45:00Z,26.0257,-81.7332,4.61,18.5,1111122 
NERRS,ioos:station:NOAA.NERRS:rkblhwq:1,2017-09-08T06:45:00Z,26.0257,-81.7332,5.05,19.5,1111122 
NERRS,ioos:station:NOAA.NERRS:rkblhwq:1,2017-09-08T07:45:00Z,26.0257,-81.7332,5.09,19.9,1111122 
NERRS,ioos:station:NOAA.NERRS:rkblhwq:1,2017-09-08T08:45:00Z,26.0257,-81.7332,4.88,18.9,1111122 
NERRS,ioos:station:NOAA.NERRS:rkblhwq:1,2017-09-08T09:45:00Z,26.0257,-81.7332,4.5,18.1,1111122 
NERRS,ioos:station:NOAA.NERRS:rkblhwq:1,2017-09-08T10:45:00Z,26.0257,-81.7332,3.99,18.9,1111122 
NERRS,ioos:station:NOAA.NERRS:rkblhwq:1,2017-09-08T11:45:00Z,26.0257,-81.7332,3.45,18.9,1111122 
NERRS,ioos:station:NOAA.NERRS:rkblhwq:1,2017-09-08T12:45:00Z,26.0257,-81.7332,2.99,16.7,1111122 
NERRS,ioos:station:NOAA.NERRS:rkblhwq:1,2017-09-08T13:45:00Z,26.0257,-81.7332,2.7,14.0,1111122 
NERRS,ioos:station:NOAA.NERRS:rkblhwq:1,2017-09-08T14:45:00Z,26.0257,-81.7332,2.95,13.7,1111122 
NERRS,ioos:station:NOAA.NERRS:rkblhwq:1,2017-09-08T15:45:00Z,26.0257,-81.7332,3.49,14.7,1111122 
NERRS,ioos:station:NOAA.NERRS:rkblhwq:1,2017-09-08T16:45:00Z,26.0257,-81.7332,4.03,16.6,1111122 
NERRS,ioos:station:NOAA.NERRS:rkblhwq:1,2017-09-08T17:45:00Z,26.0257,-81.7332,4.56,18.1,1111122 
NERRS,ioos:station:NOAA.NERRS:rkblhwq:1,2017-09-08T18:45:00Z,26.0257,-81.7332,5.0,19.7,1111122 
NERRS,ioos:station:NOAA.NERRS:rkblhwq:1,2017-09-08T19:45:00Z,26.0257,-81.7332,5.15,20.5,1111122 
NERRS,ioos:station:NOAA.NERRS:rkblhwq:1,2017-09-08T20:45:00Z,26.0257,-81.7332,4.98,20.1,1111122 
NERRS,ioos:station:NOAA.NERRS:rkblhwq:1,2017-09-08T21:45:00Z,26.0257,-81.7332,4.53,19.1,1111122 
NERRS,ioos:station:NOAA.NERRS:rkblhwq:1,2017-09-08T22:45:00Z,26.0257,-81.7332,4.02,17.1,1111122 
NERRS,ioos:station:NOAA.NERRS:rkblhwq:1,2017-09-08T23:45:00Z,26.0257,-81.7332,3.5,15.3,1111122 
NERRS,ioos:station:NOAA.NERRS:rkblhwq:1,2017-09-09T00:45:00Z,26.0257,-81.7332,3.04,14.2,1111122 
NERRS,ioos:station:NOAA.NERRS:rkblhwq:1,2017-09-09T01:45:00Z,26.0257,-81.7332,2.61,13.9,1111122 
NERRS,ioos:station:NOAA.NERRS:rkblhwq:1,2017-09-09T02:45:00Z,26.0257,-81.7332,2.49,13.0,1111122 
NERRS,ioos:station:NOAA.NERRS:rkblhwq:1,2017-09-09T03:45:00Z,26.0257,-81.7332,2.79,16.6,1111122 
NERRS,ioos:station:NOAA.NERRS:rkblhwq:1,2017-09-09T04:45:00Z,26.0257,-81.7332,3.27,15.6,1111122 
NERRS,ioos:station:NOAA.NERRS:rkblhwq:1,2017-09-09T05:45:00Z,26.0257,-81.7332,3.82,17.0,1111122 
NERRS,ioos:station:NOAA.NERRS:rkblhwq:1,2017-09-09T06:45:00Z,26.0257,-81.7332,4.24,18.8,1111122 
NERRS,ioos:station:NOAA.NERRS:rkblhwq:1,2017-09-09T07:45:00Z,26.0257,-81.7332,4.57,20.4,1111122 
NERRS,ioos:station:NOAA.NERRS:rkblhwq:1,2017-09-09T08:45:00Z,26.0257,-81.7332,4.61,20.4,1111122 
NERRS,ioos:station:NOAA.NERRS:rkblhwq:1,2017-09-09T09:45:00Z,26.0257,-81.7332,4.29,16.0,1111122 
NERRS,ioos:station:NOAA.NERRS:rkblhwq:1,2017-09-09T10:45:00Z,26.0257,-81.7332,3.76,15.7,1111122 
NERRS,ioos:station:NOAA.NERRS:rkblhwq:1,2017-09-09T11:45:00Z,26.0257,-81.7332,3.23,15.1,1111122 
NERRS,ioos:station:NOAA.NERRS:rkblhwq:1,2017-09-09T12:45:00Z,26.0257,-81.7332,2.75,14.6,1111122 
NERRS,ioos:station:NOAA.NERRS:rkblhwq:1,2017-09-09T13:45:00Z,26.0257,-81.7332,2.38,14.2,1111122 
NERRS,ioos:station:NOAA.NERRS:rkblhwq:1,2017-09-09T14:45:00Z,26.0257,-81.7332,2.44,13.6,1111122 
NERRS,ioos:station:NOAA.NERRS:rkblhwq:1,2017-09-09T15:45:00Z,26.0257,-81.7332,2.77,16.4,1111122 
NERRS,ioos:station:NOAA.NERRS:rkblhwq:1,2017-09-09T16:45:00Z,26.0257,-81.7332,3.18,16.0,1111122 
NERRS,ioos:station:NOAA.NERRS:rkblhwq:1,2017-09-09T17:45:00Z,26.0257,-81.7332,3.55,17.4,1111122 
NERRS,ioos:station:NOAA.NERRS:rkblhwq:1,2017-09-09T18:45:00Z,26.0257,-81.7332,3.9,19.6,1111122 
NERRS,ioos:station:NOAA.NERRS:rkblhwq:1,2017-09-09T19:45:00Z,26.0257,-81.7332,4.32,20.2,1111122 
NERRS,ioos:station:NOAA.NERRS:rkblhwq:1,2017-09-09T20:45:00Z,26.0257,-81.7332,4.29,20.3,1111122 
NERRS,ioos:station:NOAA.NERRS:rkblhwq:1,2017-09-09T21:45:00Z,26.0257,-81.7332,4.03,16.4,1111122 
NERRS,ioos:station:NOAA.NERRS:rkblhwq:1,2017-09-09T22:45:00Z,26.0257,-81.7332,3.51,16.2,1111122 
NERRS,ioos:station:NOAA.NERRS:rkblhwq:1,2017-09-09T23:45:00Z,26.0257,-81.7332,2.99,15.1,1111122 
NERRS,ioos:station:NOAA.NERRS:rkblhwq:1,2017-09-10T00:45:00Z,26.0257,-81.7332,2.53,14.5,1111122 
NERRS,ioos:station:NOAA.NERRS:rkblhwq:1,2017-09-10T01:45:00Z,26.0257,-81.7332,2.12,14.2,1111122 
NERRS,ioos:station:NOAA.NERRS:rkblhwq:1,2017-09-10T02:45:00Z,26.0257,-81.7332,1.78,11.6,1111122 
NERRS,ioos:station:NOAA.NERRS:rkblhwq:1,2017-09-10T03:45:00Z,26.0257,-81.7332,1.45,13.0,1111122 
NERRS,ioos:station:NOAA.NERRS:rkblhwq:1,2017-09-10T04:45:00Z,26.0257,-81.7332,1.22,12.3,1111122 
NERRS,ioos:station:NOAA.NERRS:rkblhwq:1,2017-09-10T05:45:00Z,26.0257,-81.7332,1.34,10.7,1111122 
NERRS,ioos:station:NOAA.NERRS:rkblhwq:1,2017-09-10T06:45:00Z,26.0257,-81.7332,1.76,11.1,1111122 
NERRS,ioos:station:NOAA.NERRS:rkblhwq:1,2017-09-10T07:45:00Z,26.0257,-81.7332,1.82,11.3,1111122 
NERRS,ioos:station:NOAA.NERRS:rkblhwq:1,2017-09-10T08:45:00Z,26.0257,-81.7332,1.76,11.2,1111122 
NERRS,ioos:station:NOAA.NERRS:rkblhwq:1,2017-09-10T09:45:00Z,26.0257,-81.7332,1.41,6.5,1111122 
NERRS,ioos:station:NOAA.NERRS:rkblhwq:1,2017-09-10T10:45:00Z,26.0257,-81.7332,0.93,7.2,1111122 
NERRS,ioos:station:NOAA.NERRS:rkblhwq:1,2017-09-10T11:45:00Z,26.0257,-81.7332,0.58,8.9,1111122 
NERRS,ioos:station:NOAA.NERRS:rkblhwq:1,2017-09-10T12:45:00Z,26.0257,-81.7332,0.2,5.7,1111122 
NERRS,ioos:station:NOAA.NERRS:rkblhwq:1,2017-09-10T13:45:00Z,26.0257,-81.7332,-0.07,5.7,1111122 
NERRS,ioos:station:NOAA.NERRS:rkblhwq:1,2017-09-10T14:45:00Z,26.0257,-81.7332,-0.33,4.4,1111122 
NERRS,ioos:station:NOAA.NERRS:rkblhwq:1,2017-09-10T15:45:00Z,26.0257,-81.7332,-0.52,1.8,1111122 
NERRS,ioos:station:NOAA.NERRS:rkblhwq:1,2017-09-10T16:45:00Z,26.0257,-81.7332,-0.63,1.5,1111122 
NERRS,ioos:station:NOAA.NERRS:rkblhwq:1,2017-09-10T17:45:00Z,26.0257,-81.7332,-0.75,2.1,1111122 
NERRS,ioos:station:NOAA.NERRS:rkblhwq:1,2017-09-10T18:45:00Z,26.0257,-81.7332,-0.98,0.9,1111122 
NERRS,ioos:station:NOAA.NERRS:rkblhwq:1,2017-09-10T19:45:00Z,26.0257,-81.7332,-1.66,1.0,1111122 
NERRS,ioos:station:NOAA.NERRS:rkblhwq:1,2017-09-10T20:45:00Z,26.0257,-81.7332,-1.07,1.7,1111122 
NERRS,ioos:station:NOAA.NERRS:rkblhwq:1,2017-09-10T21:45:00Z,26.0257,-81.7332,1.79,18.8,1111122 
NERRS,ioos:station:NOAA.NERRS:rkblhwq:1,2017-09-10T22:45:00Z,26.0257,-81.7332,4.54,25.8,1111122 
NERRS,ioos:station:NOAA.NERRS:rkblhwq:1,2017-09-10T23:45:00Z,26.0257,-81.7332,5.72,26.8,1111122 
NERRS,ioos:station:NOAA.NERRS:rkblhwq:1,2017-09-11T00:45:00Z,26.0257,-81.7332,6.42,28.0,1111122 
NERRS,ioos:station:NOAA.NERRS:rkblhwq:1,2017-09-11T01:45:00Z,26.0257,-81.7332,6.91,27.8,1111122 
NERRS,ioos:station:NOAA.NERRS:rkblhwq:1,2017-09-11T02:45:00Z,26.0257,-81.7332,7.01,27.0,1111122 
NERRS,ioos:station:NOAA.NERRS:rkblhwq:1,2017-09-11T03:45:00Z,26.0257,-81.7332,7.01,26.8,1111122 
NERRS,ioos:station:NOAA.NERRS:rkblhwq:1,2017-09-11T04:45:00Z,26.0257,-81.7332,6.99,27.4,1111122 
NERRS,ioos:station:NOAA.NERRS:rkblhwq:1,2017-09-11T05:45:00Z,26.0257,-81.7332,6.94,26.4,1111122 
NERRS,ioos:station:NOAA.NERRS:rkblhwq:1,2017-09-11T06:45:00Z,26.0257,-81.7332,6.83,26.2,1111122 
NERRS,ioos:station:NOAA.NERRS:rkblhwq:1,2017-09-11T07:45:00Z,26.0257,-81.7332,6.62,25.8,1111122 
NERRS,ioos:station:NOAA.NERRS:rkblhwq:1,2017-09-11T08:45:00Z,26.0257,-81.7332,6.42,25.8,1111122 
NERRS,ioos:station:NOAA.NERRS:rkblhwq:1,2017-09-11T09:45:00Z,26.0257,-81.7332,6.23,25.1,1111122 
NERRS,ioos:station:NOAA.NERRS:rkblhwq:1,2017-09-11T10:45:00Z,26.0257,-81.7332,6.15,23.9,1111122 
NERRS,ioos:station:NOAA.NERRS:rkblhwq:1,2017-09-11T11:45:00Z,26.0257,-81.7332,5.98,23.1,1111122 
NERRS,ioos:station:NOAA.NERRS:rkblhwq:1,2017-09-11T12:45:00Z,26.0257,-81.7332,5.74,21.4,1111122 
NERRS,ioos:station:NOAA.NERRS:rkblhwq:1,2017-09-11T13:45:00Z,26.0257,-81.7332,5.48,16.5,1111122 
NERRS,ioos:station:NOAA.NERRS:rkblhwq:1,2017-09-11T14:45:00Z,26.0257,-81.7332,5.18,14.7,1111122 
NERRS,ioos:station:NOAA.NERRS:rkblhwq:1,2017-09-11T15:45:00Z,26.0257,-81.7332,4.91,11.8,1111122 
NERRS,ioos:station:NOAA.NERRS:rkblhwq:1,2017-09-11T16:45:00Z,26.0257,-81.7332,4.65,9.4,1111122 
NERRS,ioos:station:NOAA.NERRS:rkblhwq:1,2017-09-11T17:45:00Z,26.0257,-81.7332,4.76,12.5,1111122 
NERRS,ioos:station:NOAA.NERRS:rkblhwq:1,2017-09-11T18:45:00Z,26.0257,-81.7332,5.11,15.3,1111122 
NERRS,ioos:station:NOAA.NERRS:rkblhwq:1,2017-09-11T19:45:00Z,26.0257,-81.7332,5.27,15.3,1111122 
NERRS,ioos:station:NOAA.NERRS:rkblhwq:1,2017-09-11T20:45:00Z,26.0257,-81.7332,5.28,11.2,1111122 
NERRS,ioos:station:NOAA.NERRS:rkblhwq:1,2017-09-11T21:45:00Z,26.0257,-81.7332,5.26,12.2,1111122 
NERRS,ioos:station:NOAA.NERRS:rkblhwq:1,2017-09-11T22:45:00Z,26.0257,-81.7332,5.31,8.7,1111122 
NERRS,ioos:station:NOAA.NERRS:rkblhwq:1,2017-09-11T23:45:00Z,26.0257,-81.7332,5.3,7.4,1111122 
NERRS,ioos:station:NOAA.NERRS:rkblhwq:1,2017-09-12T00:45:00Z,26.0257,-81.7332,5.19,5.3,1111122 
NERRS,ioos:station:NOAA.NERRS:rkblhwq:1,2017-09-12T01:45:00Z,26.0257,-81.7332,4.94,4.8,1111122 
NERRS,ioos:station:NOAA.NERRS:rkblhwq:1,2017-09-12T02:45:00Z,26.0257,-81.7332,4.67,3.7,1111122 
NERRS,ioos:station:NOAA.NERRS:rkblhwq:1,2017-09-12T03:45:00Z,26.0257,-81.7332,4.37,2.7,1111122 
NERRS,ioos:station:NOAA.NERRS:rkblhwq:1,2017-09-12T04:45:00Z,26.0257,-81.7332,4.15,2.3,1111122 
NERRS,ioos:station:NOAA.NERRS:rkblhwq:1,2017-09-12T05:45:00Z,26.0257,-81.7332,4.26,4.5,1111122 
NERRS,ioos:station:NOAA.NERRS:rkblhwq:1,2017-09-12T06:45:00Z,26.0257,-81.7332,4.49,14.7,1111122 
NERRS,ioos:station:NOAA.NERRS:rkblhwq:1,2017-09-12T07:45:00Z,26.0257,-81.7332,4.77,13.4,1111122 
NERRS,ioos:station:NOAA.NERRS:rkblhwq:1,2017-09-12T08:45:00Z,26.0257,-81.7332,4.97,14.9,1111122 
NERRS,ioos:station:NOAA.NERRS:rkblhwq:1,2017-09-12T09:45:00Z,26.0257,-81.7332,5.16,14.9,1111122 
NERRS,ioos:station:NOAA.NERRS:rkblhwq:1,2017-09-12T10:45:00Z,26.0257,-81.7332,5.27,16.2,1111122 
NERRS,ioos:station:NOAA.NERRS:rkblhwq:1,2017-09-12T11:45:00Z,26.0257,-81.7332,5.15,8.5,1111122 
NERRS,ioos:station:NOAA.NERRS:rkblhwq:1,2017-09-12T12:45:00Z,26.0257,-81.7332,4.81,11.1,1111122 
NERRS,ioos:station:NOAA.NERRS:rkblhwq:1,2017-09-12T13:45:00Z,26.0257,-81.7332,4.39,3.1,1111122 
NERRS,ioos:station:NOAA.NERRS:rkblhwq:1,2017-09-12T14:45:00Z,26.0257,-81.7332,3.89,4.4,1111122 
NERRS,ioos:station:NOAA.NERRS:rkblhwq:1,2017-09-12T15:45:00Z,26.0257,-81.7332,3.42,3.9,1111122 
NERRS,ioos:station:NOAA.NERRS:rkblhwq:1,2017-09-12T16:45:00Z,26.0257,-81.7332,3.01,4.1,1111122 
NERRS,ioos:station:NOAA.NERRS:rkblhwq:1,2017-09-12T17:45:00Z,26.0257,-81.7332,2.79,3.8,1111122 
NERRS,ioos:station:NOAA.NERRS:rkblhwq:1,2017-09-12T18:45:00Z,26.0257,-81.7332,3.02,4.2,1111122 
NERRS,ioos:station:NOAA.NERRS:rkblhwq:1,2017-09-12T19:45:00Z,26.0257,-81.7332,3.44,5.4,1111122 
NERRS,ioos:station:NOAA.NERRS:rkblhwq:1,2017-09-12T20:45:00Z,26.0257,-81.7332,3.83,5.1,1111122 
NERRS,ioos:station:NOAA.NERRS:rkblhwq:1,2017-09-12T21:45:00Z,26.0257,-81.7332,4.15,9.6,1111122 
NERRS,ioos:station:NOAA.NERRS:rkblhwq:1,2017-09-12T22:45:00Z,26.0257,-81.7332,4.41,10.4,1111122 